Weather History for Crane Lake, MN

Change the Weather History Date:

Friday, March 8, 2013

  Actual Average Record
Temperature  
Mean Temperature 17 °F -  
Max Temperature 28 °F 25 °F 37 °F (2004)
Min Temperature 6 °F 3 °F -18 °F (2005)
Degree Days  
Heating Degree Days 48    
Moisture  
Dew Point 17 °F    
Average Humidity 81    
Maximum Humidity 93    
Minimum Humidity 68    
Precipitation  
Precipitation 0.00 in - - ()
Sea Level Pressure  
Sea Level Pressure 30.23 in    
Wind  
Wind Speed 2 mph (South)    
Max Wind Speed 8 mph    
Max Gust Speed -    
Visibility 8 miles    
Events      
Averages and records for this station are not official NWS values.
T = Trace of Precipitation, MM = Missing Value Source: NWS Daily Summary

Daily Weather History Graph

Daily Weather History Graph

Search for Another Location

Airport:

Trip Planner

Search our weather history database for the weather conditions in past years. The results will help you decide how hot, cold, wet, or windy it might be!

Date:

Astronomy

Mar. 08, 2013 Rise Set
Actual Time 6:36 AM CST 6:05 PM CST
Civil Twilight 6:05 AM CST 6:36 PM CST
Nautical Twilight 5:29 AM CST 7:12 PM CST
Astronomical Twilight 4:53 AM CST 7:49 PM CST
Moon 4:34 AM CST (3/8) 2:49 PM CST (3/8)
Length of Visible Light 12h 30m
Length of Day
11h 28m
Waning Crescent, 11% of the Moon is Illuminated
Mar 8
Waning Crescent
Mar 11
New
Mar 19
First Quarter
Mar 27
Full
Apr 2
Last Quarter

Hourly Weather History & Observations

Time (CST) Temp. Windchill Dew Point Humidity Pressure Visibility Wind Dir Wind Speed Gust Speed Precip Events Conditions
12:09 AM 21.2 °F - 12.2 °F 68% 30.31 in 10.0 mi Calm Calm - N/A   Overcast
12:29 AM 19.4 °F 11.5 °F 14.0 °F 80% 30.31 in 10.0 mi SSE 5.8 mph - N/A   Overcast
12:49 AM 19.4 °F 12.8 °F 12.2 °F 74% 30.31 in 10.0 mi SSE 4.6 mph - N/A   Overcast
1:09 AM 19.4 °F 12.8 °F 14.0 °F 80% 30.31 in 10.0 mi SE 4.6 mph - N/A   Overcast
1:29 AM 17.6 °F 9.3 °F 12.2 °F 79% 30.31 in 10.0 mi SSE 5.8 mph - N/A   Mostly Cloudy
1:49 AM 17.6 °F - 12.2 °F 79% 30.32 in 10.0 mi Calm Calm - N/A   Scattered Clouds
2:09 AM 15.8 °F - 10.4 °F 79% 30.31 in 10.0 mi Calm Calm - N/A   Clear
2:29 AM 14.0 °F - 8.6 °F 79% 30.30 in 10.0 mi Calm Calm - N/A   Clear
2:49 AM 12.2 °F - 8.6 °F 85% 30.30 in 10.0 mi Calm Calm - N/A   Clear
3:09 AM 12.2 °F - 6.8 °F 79% 30.29 in 10.0 mi Calm Calm - N/A   Clear
3:49 AM 12.2 °F - 10.4 °F 92% 30.27 in 10.0 mi Calm Calm - N/A   Scattered Clouds
4:09 AM 14.0 °F 8.2 °F 10.4 °F 86% 30.26 in 10.0 mi SSE 3.5 mph - N/A   Clear
4:29 AM 14.0 °F - 12.2 °F 93% 30.27 in 10.0 mi Calm Calm - N/A   Clear
4:49 AM 14.0 °F - 10.4 °F 86% 30.26 in 10.0 mi Calm Calm - N/A   Clear
5:09 AM 12.2 °F - 8.6 °F 85% 30.26 in 10.0 mi Calm Calm - N/A   Clear
5:29 AM 10.4 °F - 6.8 °F 85% 30.26 in 10.0 mi Calm Calm - N/A   Clear
5:49 AM 8.6 °F - 6.8 °F 92% 30.26 in 10.0 mi Calm Calm - N/A   Clear
6:29 AM 6.8 °F - 3.2 °F 85% 30.25 in 10.0 mi Calm Calm - N/A   Mostly Cloudy
6:49 AM 10.4 °F - 8.6 °F 92% 30.25 in 10.0 mi Calm Calm - N/A   Overcast
7:09 AM 14.0 °F 8.2 °F 12.2 °F 93% 30.24 in 10.0 mi South 3.5 mph - N/A   Overcast
7:29 AM 17.6 °F 12.3 °F 15.8 °F 93% 30.25 in 10.0 mi South 3.5 mph - N/A   Overcast
7:49 AM 19.4 °F 10.4 °F 17.6 °F 93% 30.25 in 10.0 mi South 6.9 mph - N/A   Overcast
8:09 AM 19.4 °F 10.4 °F 17.6 °F 93% 30.25 in 10.0 mi South 6.9 mph - N/A   Overcast
8:29 AM 19.4 °F 12.8 °F 17.6 °F 93% 30.25 in 10.0 mi South 4.6 mph - N/A   Overcast
8:49 AM 21.2 °F 16.4 °F 17.6 °F 86% 30.25 in 10.0 mi South 3.5 mph - N/A   Overcast
9:09 AM 21.2 °F 14.9 °F 17.6 °F 86% 30.24 in 10.0 mi South 4.6 mph - N/A   Overcast
9:29 AM 23.0 °F 13.9 °F 17.6 °F 80% 30.24 in 10.0 mi South 8.1 mph - N/A   Overcast
9:49 AM 24.8 °F 16.9 °F 19.4 °F 80% 30.24 in 10.0 mi South 6.9 mph - N/A   Overcast
10:09 AM 24.8 °F 19.1 °F 19.4 °F 80% 30.24 in 10.0 mi South 4.6 mph - N/A   Overcast
10:29 AM 24.8 °F 17.9 °F 19.4 °F 80% 30.24 in 10.0 mi South 5.8 mph - N/A   Overcast
10:49 AM 26.6 °F 21.2 °F 19.4 °F 74% 30.25 in 10.0 mi SW 4.6 mph - N/A   Overcast
11:09 AM 26.6 °F 22.6 °F 19.4 °F 74% 30.25 in 10.0 mi South 3.5 mph - N/A   Overcast
11:29 AM 26.6 °F - 19.4 °F 74% 30.24 in 7.0 mi Calm Calm - N/A   Overcast
11:49 AM 26.6 °F 21.2 °F 19.4 °F 74% 30.24 in 7.0 mi South 4.6 mph - N/A   Overcast
12:09 PM 26.6 °F 22.6 °F 19.4 °F 74% 30.24 in 10.0 mi SSE 3.5 mph - N/A   Overcast
12:29 PM 26.6 °F - 19.4 °F 74% 30.24 in 7.0 mi Calm Calm - N/A   Overcast
12:49 PM 26.6 °F - 21.2 °F 80% 30.23 in 7.0 mi Calm Calm - N/A   Overcast
1:09 PM 28.4 °F - 21.2 °F 74% 30.23 in 7.0 mi Calm Calm - N/A   Overcast
1:29 PM 28.4 °F 23.3 °F 21.2 °F 74% 30.22 in 7.0 mi South 4.6 mph - N/A   Overcast
1:49 PM 28.4 °F - 21.2 °F 74% 30.22 in 7.0 mi Calm Calm - N/A   Overcast
2:09 PM 28.4 °F 23.3 °F 21.2 °F 74% 30.22 in 7.0 mi SSE 4.6 mph - N/A   Overcast
2:29 PM 28.4 °F 23.3 °F 21.2 °F 74% 30.22 in 7.0 mi South 4.6 mph - N/A   Overcast
2:49 PM 28.4 °F - 21.2 °F 74% 30.21 in 7.0 mi Calm Calm - N/A   Overcast
3:09 PM 28.4 °F 22.2 °F 21.2 °F 74% 30.22 in 7.0 mi SSW 5.8 mph - N/A   Overcast
3:29 PM 28.4 °F - 21.2 °F 74% 30.22 in 7.0 mi Calm Calm - N/A   Overcast
3:49 PM 28.4 °F - 23.0 °F 80% 30.22 in 7.0 mi Calm Calm - N/A   Overcast
4:09 PM 28.4 °F - 23.0 °F 80% 30.21 in 7.0 mi Calm Calm - N/A   Overcast
4:29 PM 28.4 °F 24.6 °F 23.0 °F 80% 30.22 in 7.0 mi SW 3.5 mph - N/A   Overcast
4:49 PM 28.4 °F 24.6 °F 23.0 °F 80% 30.22 in 7.0 mi SW 3.5 mph - N/A   Overcast
5:09 PM 28.4 °F 24.6 °F 23.0 °F 80% 30.23 in 7.0 mi WSW 3.5 mph - N/A   Overcast
5:29 PM 28.4 °F - 21.2 °F 74% 30.22 in 7.0 mi Calm Calm - N/A   Overcast
5:49 PM 28.4 °F - 21.2 °F 74% 30.22 in 7.0 mi Calm Calm - N/A   Overcast
6:09 PM 26.6 °F - 21.2 °F 80% 30.22 in 7.0 mi Calm Calm - N/A   Overcast
6:29 PM 26.6 °F - 21.2 °F 80% 30.21 in 7.0 mi Calm Calm - N/A   Overcast
6:49 PM 26.6 °F - 21.2 °F 80% 30.21 in 7.0 mi Calm Calm - N/A   Overcast
7:09 PM 26.6 °F - 21.2 °F 80% 30.20 in 10.0 mi Calm Calm - N/A   Overcast
7:29 PM 26.6 °F - 21.2 °F 80% 30.20 in 7.0 mi Calm Calm - N/A   Overcast
7:49 PM 26.6 °F - 21.2 °F 80% 30.20 in 10.0 mi Calm Calm - N/A   Overcast
8:09 PM 26.6 °F - 21.2 °F 80% 30.19 in 7.0 mi Calm Calm - N/A   Overcast
8:29 PM 24.8 °F - 21.2 °F 86% 30.19 in 7.0 mi Calm Calm - N/A   Overcast
8:49 PM 24.8 °F - 19.4 °F 80% 30.20 in 7.0 mi Calm Calm - N/A   Overcast
9:09 PM 24.8 °F - 19.4 °F 80% 30.20 in 7.0 mi Calm Calm - N/A   Overcast
9:29 PM 24.8 °F - 19.4 °F 80% 30.18 in 7.0 mi Calm Calm - N/A   Scattered Clouds
9:49 PM 24.8 °F - 19.4 °F 80% 30.16 in 7.0 mi Calm Calm - N/A   Scattered Clouds
10:09 PM 24.8 °F - 19.4 °F 80% 30.17 in 7.0 mi Calm Calm - N/A   Scattered Clouds
10:29 PM 24.8 °F - 19.4 °F 80% 30.15 in 7.0 mi Calm Calm - N/A   Scattered Clouds
10:49 PM 24.8 °F - 19.4 °F 80% 30.16 in 5.0 mi Calm Calm - N/A   Scattered Clouds
11:09 PM 23.0 °F - 19.4 °F 86% 30.15 in 5.0 mi Calm Calm - N/A   Scattered Clouds
11:29 PM 21.2 °F - 17.6 °F 86% 30.14 in 5.0 mi Calm Calm - N/A   Scattered Clouds
11:49 PM 21.2 °F - 17.6 °F 86% 30.13 in 5.0 mi Calm Calm - N/A   Scattered Clouds